Location: Prairie Dale
(45.6972°N, 104.5033°W)
Time: 15:39:02
(UTC+00:00)

ESTCUBE 1 - Pass Details

Date: 04 July 2022
Orbit: 646 x 657 km, 97.9° (Epoch: 07 August)

Event Time Altitude Azimuth Distance (km) Brightness Sun altitude
Exits shadow 05:00:57 28° 164° (SSE) 1,208 ? -16.1°
Maximum altitude 05:03:17 87° 78° (ENE) 655 ? -16.3°
Drops below altitude 10° 05:07:48 10° 347° (NNW) 2,061 ? -16.6°
Sets 05:10:01 0° 348° (NNW) 2,978 ? -16.8°
